| time (UTC) | temp F | wind direction | speed MPH | gust MPH | rain 1hr in | rain 24hr in | rain mn in | humidity % | barometer mb |
| 20260510180028 | 62 | 298 | 3.0 | 7.0 | 0.00 | 0.09 | 0.05 | 48 | 1018.7 |
| 20260510174527 | 60 | 333 | 1.0 | 6.0 | 0.00 | 0.09 | 0.05 | 53 | 1018.9 |
| 20260510173026 | 60 | 267 | 4.0 | 8.0 | 0.00 | 0.09 | 0.05 | 54 | 1019.0 |
| 20260510171525 | 61 | 65 | 4.0 | 9.0 | 0.00 | 0.09 | 0.05 | 55 | 1019.1 |
| 20260510170019 | 59 | 5 | 3.0 | 8.0 | 0.00 | 0.09 | 0.05 | 63 | 1019.3 |
| 20260510164516 | 58 | 68 | 6.0 | 10.0 | 0.00 | 0.09 | 0.05 | 68 | 1019.3 |
| 20260510163014 | 56 | 51 | 2.0 | 8.0 | 0.00 | 0.09 | 0.05 | 69 | 1019.2 |
| 20260510161513 | 56 | 45 | 2.0 | 10.0 | 0.00 | 0.09 | 0.05 | 68 | 1019.2 |
| 20260510160012 | 56 | 32 | 6.0 | 10.0 | 0.00 | 0.09 | 0.05 | 69 | 1019.1 |
| 20260510154511 | 57 | 53 | 5.0 | 9.0 | 0.00 | 0.09 | 0.05 | 69 | 1019.1 |
| 20260510153009 | 57 | 43 | 2.0 | 8.0 | 0.00 | 0.09 | 0.05 | 71 | 1019.0 |
| 20260510151506 | 57 | 29 | 2.0 | 6.0 | 0.00 | 0.09 | 0.05 | 73 | 1018.9 |
| 20260510150003 | 55 | 63 | 1.0 | 10.0 | 0.00 | 0.12 | 0.05 | 76 | 1018.8 |
| 20260510144600 | 54 | 60 | 5.0 | 9.0 | 0.00 | 0.12 | 0.05 | 77 | 1018.7 |
| 20260510143058 | 53 | 9 | 4.0 | 9.0 | 0.00 | 0.12 | 0.05 | 79 | 1018.7 |
| 20260510141558 | 52 | 48 | 3.0 | 7.0 | 0.00 | 0.12 | 0.05 | 83 | 1018.5 |
| 20260510140108 | 51 | 360 | 4.0 | 9.0 | 0.00 | 0.12 | 0.05 | 86 | 1018.5 |
| 20260510134559 | 51 | 335 | 3.0 | 9.0 | 0.00 | 0.15 | 0.05 | 88 | 1017.9 |
| 20260510133054 | 52 | 38 | 1.0 | 8.0 | 0.00 | 0.15 | 0.05 | 90 | 1017.8 |
| 20260510131553 | 53 | 281 | 2.0 | 5.0 | 0.00 | 0.15 | 0.05 | 90 | 1017.6 |
| 20260510130050 | 52 | 152 | 0.0 | 3.0 | 0.00 | 0.15 | 0.05 | 90 | 1017.5 |
| 20260510124547 | 52 | 151 | 0.0 | 2.0 | 0.00 | 0.22 | 0.05 | 90 | 1017.3 |
| 20260510123045 | 52 | 151 | 0.0 | 1.0 | 0.00 | 0.22 | 0.05 | 90 | 1017.1 |
| 20260510121544 | 52 | 151 | 1.0 | 2.0 | 0.00 | 0.22 | 0.05 | 90 | 1016.9 |
| 20260510120042 | 51 | 151 | 0.0 | 2.0 | 0.00 | 0.22 | 0.05 | 90 | 1016.7 |
| 20260510114543 | 51 | 151 | 0.0 | 1.0 | 0.00 | 0.27 | 0.05 | 90 | 1016.6 |
| 20260510113042 | 50 | 151 | 0.0 | 1.0 | 0.00 | 0.27 | 0.05 | 90 | 1016.4 |
| 20260510111559 | 50 | 151 | 0.0 | 1.0 | 0.00 | 0.27 | 0.05 | 90 | 1016.1 |
| 20260510110042 | 50 | 151 | 0.0 | 2.0 | 0.00 | 0.27 | 0.05 | 90 | 1015.7 |
| 20260510104537 | 50 | 151 | 0.0 | 1.0 | 0.00 | 0.36 | 0.05 | 89 | 1015.5 |
| 20260510103036 | 50 | 151 | 0.0 | 2.0 | 0.00 | 0.36 | 0.05 | 89 | 1015.1 |
| 20260510101536 | 50 | 151 | 0.0 | 2.0 | 0.00 | 0.36 | 0.05 | 89 | 1015.1 |
| 20260510100034 | 50 | 151 | 0.0 | 1.0 | 0.00 | 0.36 | 0.05 | 89 | 1015.0 |
| 20260510094533 | 50 | 151 | 0.0 | 1.0 | 0.00 | 0.37 | 0.05 | 89 | 1014.9 |
| 20260510093055 | 50 | 151 | 0.0 | 3.0 | 0.00 | 0.37 | 0.05 | 89 | 1014.5 |
| 20260510091534 | 50 | 151 | 0.0 | 3.0 | 0.00 | 0.37 | 0.05 | 89 | 1014.7 |
| 20260510090046 | 50 | 151 | 2.0 | 3.0 | 0.00 | 0.37 | 0.05 | 89 | 1014.4 |
| 20260510084532 | 50 | 225 | 1.0 | 4.0 | 0.00 | 0.37 | 0.05 | 89 | 1014.0 |
| 20260510083029 | 50 | 224 | 2.0 | 4.0 | 0.00 | 0.37 | 0.05 | 89 | 1014.1 |
| 20260510081531 | 50 | 225 | 2.0 | 4.0 | 0.00 | 0.37 | 0.05 | 88 | 1014.0 |
| 20260510080037 | 50 | 221 | 2.0 | 4.0 | 0.00 | 0.37 | 0.05 | 88 | 1013.9 |
| 20260510074526 | 51 | 297 | 1.0 | 3.0 | 0.00 | 0.38 | 0.05 | 88 | 1013.8 |
| 20260510073025 | 51 | 298 | 1.0 | 4.0 | 0.00 | 0.38 | 0.05 | 88 | 1013.6 |
| 20260510071524 | 51 | 235 | 0.0 | 5.0 | 0.00 | 0.38 | 0.05 | 88 | 1013.5 |
| 20260510070027 | 51 | 276 | 3.0 | 6.0 | 0.00 | 0.41 | 0.05 | 88 | 1013.7 |
| 20260510064522 | 51 | 225 | 3.0 | 7.0 | 0.00 | 0.41 | 0.05 | 87 | 1013.5 |
| 20260510063021 | 52 | 293 | 2.0 | 6.0 | 0.00 | 0.41 | 0.05 | 87 | 1014.0 |
| 20260510061522 | 52 | 209 | 3.0 | 6.0 | 0.01 | 0.41 | 0.05 | 87 | 1013.4 |
| 20260510060018 | 52 | 297 | 4.0 | 6.0 | 0.01 | 0.41 | 0.05 | 87 | 1014.5 |
| 20260510054517 | 52 | 217 | 2.0 | 4.0 | 0.02 | 0.41 | 0.05 | 86 | 1014.5 |
| 20260510053014 | 52 | 196 | 2.0 | 5.0 | 0.04 | 0.41 | 0.05 | 85 | 1014.4 |
| 20260510051512 | 53 | 227 | 1.0 | 4.0 | 0.04 | 0.40 | 0.04 | 85 | 1015.1 |
| 20260510050010 | 53 | 191 | 2.0 | 6.0 | 0.04 | 0.40 | 0.04 | 84 | 1015.3 |
| 20260510044508 | 53 | 211 | 3.0 | 6.0 | 0.03 | 0.39 | 0.03 | 84 | 1015.6 |
| 20260510043010 | 54 | 259 | 2.0 | 9.0 | 0.01 | 0.37 | 0.01 | 84 | 1015.4 |
| 20260510041506 | 54 | 251 | 3.0 | 9.0 | 0.00 | 0.36 | 0.00 | 84 | 1015.5 |
| 20260510040005 | 53 | 291 | 4.0 | 11.0 | 0.00 | 0.36 | 0.36 | 86 | 1015.0 |
| 20260510034503 | 52 | 294 | 4.0 | 5.0 | 0.00 | 0.36 | 0.36 | 87 | 1014.5 |
| 20260510033002 | 52 | 219 | 2.0 | 3.0 | 0.00 | 0.36 | 0.36 | 86 | 1014.0 |
| 20260510031502 | 52 | 219 | 3.0 | 5.0 | 0.00 | 0.36 | 0.36 | 86 | 1013.8 |
| 20260510030001 | 53 | 271 | 3.0 | 8.0 | 0.00 | 0.36 | 0.36 | 86 | 1014.0 |
| 20260510024501 | 53 | 208 | 4.0 | 8.0 | 0.00 | 0.36 | 0.36 | 86 | 1013.5 |
| 20260510023105 | 53 | 223 | 6.0 | 11.0 | 0.00 | 0.36 | 0.36 | 86 | 1013.2 |
| 20260510021559 | 53 | 225 | 2.0 | 7.0 | 0.00 | 0.36 | 0.36 | 86 | 1013.1 |
| 20260510020059 | 53 | 223 | 2.0 | 7.0 | 0.00 | 0.36 | 0.36 | 85 | 1013.2 |
| 20260510014558 | 53 | 240 | 2.0 | 6.0 | 0.00 | 0.36 | 0.36 | 85 | 1013.2 |
| 20260510013058 | 54 | 238 | 3.0 | 9.0 | 0.00 | 0.36 | 0.36 | 84 | 1012.9 |
| 20260510011559 | 54 | 237 | 4.0 | 9.0 | 0.00 | 0.36 | 0.36 | 83 | 1013.0 |
| 20260510010133 | 55 | 223 | 4.0 | 11.0 | 0.00 | 0.36 | 0.36 | 83 | 1012.7 |
| 20260510004559 | 55 | 213 | 5.0 | 8.0 | 0.00 | 0.36 | 0.36 | 83 | 1012.7 |
| 20260510003058 | 55 | 209 | 5.0 | 9.0 | 0.00 | 0.36 | 0.36 | 83 | 1012.3 |
| 20260510001603 | 56 | 184 | 4.0 | 8.0 | 0.00 | 0.36 | 0.36 | 82 | 1012.4 |
| 20260510000056 | 56 | 202 | 1.0 | 4.0 | 0.00 | 0.36 | 0.36 | 81 | 1012.4 |
| 20260509234625 | 57 | 219 | 2.0 | 6.0 | 0.00 | 0.36 | 0.36 | 81 | 1012.2 |
| 20260509233055 | 57 | 204 | 2.0 | 6.0 | 0.00 | 0.36 | 0.36 | 81 | 1012.2 |
| 20260509231555 | 58 | 207 | 3.0 | 6.0 | 0.00 | 0.36 | 0.36 | 80 | 1011.6 |
| 20260509230053 | 58 | 214 | 4.0 | 7.0 | 0.00 | 0.36 | 0.36 | 80 | 1011.7 |
| 20260509224550 | 57 | 217 | 6.0 | 11.0 | 0.00 | 0.36 | 0.36 | 80 | 1011.9 |
| 20260509223051 | 57 | 227 | 8.0 | 18.0 | 0.00 | 0.36 | 0.36 | 80 | 1012.1 |
| 20260509221550 | 57 | 227 | 7.0 | 14.0 | 0.00 | 0.36 | 0.36 | 80 | 1012.0 |
| 20260509220047 | 57 | 199 | 7.0 | 11.0 | 0.00 | 0.36 | 0.36 | 81 | 1012.0 |
| 20260509214546 | 57 | 238 | 8.0 | 12.0 | 0.00 | 0.36 | 0.36 | 82 | 1012.0 |
| 20260509213049 | 57 | 250 | 6.0 | 10.0 | 0.00 | 0.36 | 0.36 | 82 | 1012.2 |
| 20260509211550 | 56 | 267 | 5.0 | 9.0 | 0.00 | 0.36 | 0.36 | 84 | 1012.3 |
| 20260509210039 | 56 | 225 | 3.0 | 8.0 | 0.00 | 0.36 | 0.36 | 85 | 1012.5 |
| 20260509204537 | 55 | 234 | 4.0 | 7.0 | 0.00 | 0.36 | 0.36 | 85 | 1012.7 |
| 20260509203044 | 55 | 208 | 5.0 | 9.0 | 0.00 | 0.36 | 0.36 | 85 | 1012.8 |
| 20260509201534 | 55 | 242 | 5.0 | 10.0 | 0.00 | 0.36 | 0.36 | 86 | 1012.9 |
| 20260509200031 | 54 | 226 | 3.0 | 9.0 | 0.01 | 0.36 | 0.36 | 88 | 1012.9 |
| 20260509194530 | 54 | 226 | 2.0 | 5.0 | 0.01 | 0.36 | 0.36 | 88 | 1013.3 |
| 20260509193031 | 54 | 254 | 3.0 | 5.0 | 0.03 | 0.36 | 0.36 | 87 | 1013.2 |
| 20260509191530 | 53 | 209 | 1.0 | 4.0 | 0.03 | 0.36 | 0.36 | 87 | 1013.3 |
| 20260509190027 | 53 | 222 | 3.0 | 5.0 | 0.03 | 0.35 | 0.35 | 86 | 1013.4 |
| 20260509184532 | 53 | 232 | 4.0 | 10.0 | 0.03 | 0.35 | 0.35 | 86 | 1013.5 |
| 20260509183026 | 53 | 205 | 3.0 | 8.0 | 0.01 | 0.33 | 0.33 | 86 | 1013.5 |
| 20260509181525 | 53 | 212 | 2.0 | 7.0 | 0.01 | 0.33 | 0.33 | 85 | 1013.5 |